1486447200.32,45833,10.13,72728.5,-8.73,-23.85,-24.11,0,*5F
1486447201.6,45834,10.13,72730.3,-8.73,-23.99,-24.11,0,*55
1486447202.89,45835,10.19,72734.5,-8.73,-23.95,-24.11,0,*58
1486447204.17,45836,10.13,72734.5,-8.73,-23.85,-24.11,0,*5A
1486447205.45,45837,10.13,72732.3,-8.73,-23.95,-24.15,0,*5E
1486447206.73,45838,10.13,72728.8,-8.73,-23.95,-24.11,0,*55
1486447208.02,45839,10.13,72734.5,-8.73,-23.95,-24.11,0,*54
1486447209.3,45840,10.13,72730.8,-8.73,-23.95,-24.11,0,*5A
1486447210.58,45841,10.13,72728.8,-8.73,-23.95,-24.15,0,*5F
1486447211.84,45842,10.13,72732.5,-8.75,-23.95,-24.15,0,*5A
1486447213.09,45843,10.13,72734.5,-8.75,-23.85,-24.11,0,*5E
1486447214.35,45844,10.13,72732.0,-8.75,-23.85,-24.15,0,*5D
1486447215.6,45845,10.13,72734.8,-8.75,-23.85,-24.11,0,*58
1486447216.85,45846,10.13,72730.0,-8.75,-23.85,-24.11,0,*5B
1486447218.08,45847,10.13,72736.0,-8.75,-23.79,-24.11,0,*59
1486447219.32,45848,10.13,72734.3,-8.75,-23.79,-24.11,0,*56
1486447220.57,45849,10.13,72732.5,-8.75,-23.85,-24.11,0,*54
1486447221.8,45850,10.13,72732.3,-8.75,-23.79,-24.11,0,*5F
1486447223.04,45851,10.13,72734.0,-8.75,-23.79,-23.99,0,*59
1486447224.29,45852,10.13,72730.5,-8.75,-23.95,-24.15,0,*5B
1486447225.52,45853,10.13,72732.0,-8.75,-23.79,-24.11,0,*5C
1486447226.76,45854,10.13,72734.3,-8.75,-23.79,-24.11,0,*5B
1486447227.99,45855,10.13,72728.5,-8.75,-23.79,-24.11,0,*5A
1486447229.22,45856,10.13,72732.0,-8.75,-23.79,-24.11,0,*59
1486447230.45,45857,10.13,72730.5,-8.75,-23.79,-24.11,0,*58
1486447231.68,45858,10.13,72732.0,-8.75,-23.79,-24.11,0,*57
1486447232.91,45859,10.13,72730.8,-8.75,-23.79,-24.11,0,*56
1486447234.17,45860,10.13,72732.0,-8.75,-23.85,-24.11,0,*5F
1486447235.43,45861,10.19,72734.0,-8.73,-23.79,-24.11,0,*5B
1486447236.69,45862,10.13,72734.5,-8.73,-23.79,-24.11,0,*58
1486447237.94,45863,10.13,72728.0,-8.73,-23.79,-24.11,0,*59
1486447239.23,45864,10.13,72732.0,-8.73,-23.85,-24.11,0,*5D
1486447240.48,45865,10.13,72732.5,-8.73,-23.79,-24.11,0,*5F
1486447241.77,45866,10.13,72732.5,-8.73,-23.85,-24.11,0,*5F
1486447243.0,45867,10.13,72732.8,-8.71,-23.79,-24.11,0,*5F
1486447244.25,45868,10.13,72730.5,-8.75,-23.85,-24.15,0,*53
1486447245.51,45869,10.13,72734.0,-8.73,-23.79,-24.11,0,*53
1486447246.79,45870,10.13,72730.8,-8.73,-23.85,-24.11,0,*58
1486447248.02,45871,10.13,72734.8,-8.71,-23.79,-24.11,0,*58
1486447249.29,45872,10.13,72732.0,-8.75,-23.95,-24.25,0,*5A
1486447250.55,45873,10.19,72734.0,-8.73,-23.79,-24.15,0,*5C
1486447251.83,45874,10.13,72730.8,-8.73,-23.95,-24.11,0,*5D
1486447253.11,45875,10.13,72732.8,-8.77,-23.95,-24.15,0,*5C
1486447254.37,45876,10.13,72734.5,-8.75,-23.85,-24.15,0,*5C
1486447255.61,45877,10.13,72732.5,-8.75,-23.79,-24.25,0,*5D
1486447256.87,45878,10.13,72734.3,-8.73,-23.79,-24.15,0,*57
1486447258.12,45879,10.13,72732.8,-8.75,-23.95,-24.15,0,*52
1486447259.42,45880,10.13,72734.3,-8.77,-23.99,-24.21,0,*5D
1486447260.67,45881,10.13,72732.5,-8.75,-23.95,-24.15,0,*55
1486447261.93,45882,10.13,72732.8,-8.75,-23.85,-24.15,0,*57
1486447263.17,45883,10.19,72738.0,-8.77,-23.89,-24.31,0,*5E
1486447264.43,45884,10.13,72736.0,-8.75,-23.99,-24.25,0,*5F
1486447265.67,45885,10.13,72732.5,-8.75,-23.95,-24.31,0,*57
1486447266.93,45886,10.13,72732.8,-8.75,-23.95,-24.25,0,*51
1486447268.17,45887,10.19,72736.8,-8.75,-23.79,-24.25,0,*52
1486447269.43,45888,10.13,72732.0,-8.73,-23.79,-24.25,0,*5B
1486447270.67,45889,10.13,72732.5,-8.77,-23.89,-24.31,0,*54
1486447271.91,45890,10.13,72732.5,-8.75,-23.85,-24.31,0,*52
1486447273.16,45891,10.13,72732.8,-8.75,-23.85,-24.15,0,*55
1486447274.43,45892,10.13,72734.8,-8.77,-23.89,-24.21,0,*5F
1486447275.67,45893,10.13,72734.0,-8.75,-23.79,-24.25,0,*57
1486447276.91,45894,10.13,72732.5,-8.77,-23.89,-24.31,0,*58
1486447278.14,45895,10.13,72734.5,-8.75,-23.79,-24.15,0,*52
1486447279.44,45896,10.13,72730.5,-8.77,-23.85,-24.21,0,*57
1486447280.7,45897,10.13,72732.5,-8.75,-23.85,-24.25,0,*50
1486447281.91,45898,10.19,72738.0,-8.75,-23.79,-24.31,0,*59
1486447283.18,45899,10.13,72734.0,-8.77,-23.99,-24.35,0,*50
1486447284.44,45900,10.13,72734.0,-8.75,-23.95,-24.25,0,*5E
1486447285.68,45901,10.13,72732.0,-8.75,-23.99,-24.31,0,*56
1486447286.94,45902,10.13,72732.3,-8.77,-23.99,-24.35,0,*53
1486447288.2,45903,10.13,72736.0,-8.75,-23.95,-24.25,0,*5D
1486447289.47,45904,10.13,72732.5,-8.77,-23.99,-24.35,0,*55
1486447290.7,45905,10.13,72734.3,-8.75,-23.95,-24.31,0,*5E
1486447291.94,45906,10.13,72736.0,-8.77,-23.89,-24.31,0,*52
1486447293.18,45907,10.13,72730.0,-8.77,-23.89,-24.35,0,*57
1486447294.42,45908,10.13,72736.8,-8.77,-23.89,-24.31,0,*5C
1486447295.68,45909,10.13,72732.3,-8.77,-23.99,-24.35,0,*58
1486447296.92,45910,10.13,72734.5,-8.77,-23.89,-24.31,0,*55
1486447298.16,45911,10.13,72732.5,-8.75,-23.85,-24.31,0,*5A
1486447299.39,45912,10.13,72732.3,-8.77,-23.89,-24.35,0,*53
1486447300.66,45913,10.13,72734.0,-8.77,-23.85,-24.31,0,*5A
1486447301.92,45914,10.13,72732.5,-8.81,-23.89,-24.41,0,*5F
1486447303.18,45915,10.19,72736.8,-8.81,-23.95,-24.57,0,*54
1486447304.44,45916,10.13,72736.3,-8.81,-24.11,-24.51,0,*5A
1486447305.68,45917,10.13,72732.8,-8.81,-24.05,-24.51,0,*5E
1486447306.94,45918,10.13,72732.8,-8.81,-24.05,-24.41,0,*50
1486447308.2,45919,10.13,72736.3,-8.81,-24.05,-24.41,0,*51
1486447309.46,45920,10.13,72732.8,-8.81,-24.05,-24.41,0,*5B
1486447310.72,45921,10.13,72736.0,-8.81,-23.89,-24.41,0,*59
1486447312.01,45922,10.13,72732.0,-8.81,-23.95,-24.41,0,*57
1486447313.24,45923,10.13,72732.0,-8.81,-23.89,-24.35,0,*58
1486447314.52,45924,10.13,72732.0,-8.81,-23.95,-24.41,0,*51
1486447315.81,45925,10.13,72732.0,-8.81,-23.95,-24.41,0,*50
1486447317.06,45926,10.13,72734.3,-8.81,-23.95,-24.35,0,*50
1486447318.32,45927,10.13,72736.0,-8.81,-23.89,-24.41,0,*5F
1486447319.55,45928,10.13,72734.0,-8.81,-23.89,-24.35,0,*53
1486447320.79,45929,10.19,72736.0,-8.83,-23.95,-24.35,0,*5D
1486447322.04,45930,10.13,72736.5,-8.81,-23.95,-24.35,0,*57
1486447323.3,45931,10.19,72738.5,-8.81,-23.95,-24.51,0,*54
1486447324.54,45932,10.19,72738.5,-8.83,-23.95,-24.51,0,*55
1486447325.77,45933,10.13,72734.3,-8.81,-23.89,-24.51,0,*5B
1486447327.06,45934,10.13,72732.0,-8.81,-23.95,-24.41,0,*50
1486447328.32,45935,10.13,72732.5,-8.81,-23.95,-24.51,0,*50
1486447329.58,45936,10.13,72734.3,-8.81,-23.95,-24.51,0,*53
1486447330.82,45937,10.13,72734.8,-8.83,-23.95,-24.51,0,*50
1486447332.05,45938,10.13,72732.3,-8.81,-23.89,-24.51,0,*50
1486447333.26,45939,10.13,72734.8,-8.83,-24.05,-24.57,0,*56
1486447334.5,45940,10.13,72732.5,-8.83,-23.95,-24.51,0,*50
1486447335.71,45941,10.13,72732.5,-8.83,-23.89,-24.51,0,*5C
1486447336.97,45942,10.13,72734.8,-8.81,-23.89,-24.41,0,*5C
1486447338.25,45943,10.13,72734.5,-8.81,-23.95,-24.41,0,*50
1486447339.49,45944,10.19,72738.3,-8.83,-23.95,-24.51,0,*54
1486447340.7,45945,10.13,72732.0,-8.83,-23.89,-24.51,0,*58
1486447341.96,45946,10.13,72732.8,-8.81,-23.95,-24.51,0,*54
1486447343.2,45947,10.13,72734.0,-8.83,-23.95,-24.57,0,*51
1486447344.46,45948,10.13,72732.8,-8.81,-23.95,-24.51,0,*5A
1486447345.69,45949,10.13,72736.0,-8.83,-24.05,-24.67,0,*52
1486447346.95,45950,10.13,72734.0,-8.81,-24.05,-24.67,0,*58
1486447348.19,45951,10.13,72734.0,-8.83,-23.95,-24.51,0,*50
1486447349.42,45952,10.13,72734.8,-8.83,-23.95,-24.57,0,*55
1486447350.65,45953,10.13,72732.3,-8.83,-24.05,-24.67,0,*59
1486447351.89,45954,10.13,72738.3,-8.83,-23.95,-24.57,0,*53
1486447353.12,45955,10.13,72732.8,-8.81,-23.89,-24.51,0,*5B
1486447354.35,45956,10.13,72734.5,-8.83,-23.89,-24.67,0,*5F
1486447355.56,45957,10.13,72734.0,-8.83,-23.89,-24.51,0,*5B
1486447356.77,45958,10.13,72732.3,-8.83,-23.89,-24.57,0,*52
1486447358.01,45959,10.13,72734.0,-8.83,-23.95,-24.57,0,*5E
1486447359.22,45960,10.13,72734.0,-8.83,-23.89,-24.57,0,*59
1486447360.43,45961,10.13,72734.5,-8.83,-23.89,-24.51,0,*5E
1486447361.66,45962,10.13,72732.3,-8.83,-23.95,-24.57,0,*56
1486447362.92,45963,10.19,72738.5,-8.85,-23.95,-24.67,0,*52
1486447364.16,45964,10.13,72734.8,-8.83,-23.95,-24.51,0,*56
1486447365.39,45965,10.13,72734.0,-8.85,-23.95,-24.57,0,*57
1486447366.6,45966,10.13,72734.0,-8.85,-23.89,-24.57,0,*59
1486447367.83,45967,10.13,72732.8,-8.83,-23.95,-24.51,0,*55
1486447369.07,45968,10.13,72732.5,-8.83,-23.95,-24.51,0,*5A
1486447370.28,45969,10.13,72734.0,-8.83,-23.89,-24.51,0,*56
1486447371.54,45970,10.13,72734.0,-8.83,-23.95,-24.67,0,*56
1486447372.8,45971,10.13,72732.5,-8.83,-23.95,-24.67,0,*57
1486447374.03,45972,10.13,72734.3,-8.85,-24.05,-24.67,0,*5C
1486447375.27,45973,10.13,72732.8,-8.85,-23.95,-24.57,0,*50
1486447376.56,45974,10.13,72732.8,-8.87,-24.11,-24.71,0,*5A
1486447377.79,45975,10.13,72734.3,-8.85,-23.89,-24.67,0,*58
1486447379.02,45976,10.13,72732.8,-8.85,-23.95,-24.57,0,*55
1486447380.23,45977,10.13,72736.3,-8.85,-23.89,-24.57,0,*59
1486447381.44,45978,10.13,72736.8,-8.85,-23.89,-24.51,0,*50
1486447382.65,45979,10.13,72734.8,-8.83,-23.89,-24.57,0,*51
1486447383.89,45980,10.19,72736.0,-8.83,-23.95,-24.57,0,*5A
1486447385.1,45981,10.13,72734.0,-8.85,-23.89,-24.51,0,*56
1486447386.33,45982,10.13,72734.5,-8.85,-23.89,-24.41,0,*54
1486447387.54,45983,10.13,72732.5,-8.85,-23.89,-24.57,0,*52
1486447388.75,45984,10.13,72734.8,-8.85,-23.89,-24.57,0,*55
1486447389.98,45985,10.13,72732.8,-8.85,-23.89,-24.41,0,*53
1486447391.25,45986,10.13,72734.3,-8.87,-23.95,-24.47,0,*59
1486447392.48,45987,10.13,72736.0,-8.85,-23.85,-24.51,0,*5C
1486447393.74,45988,10.13,72732.5,-8.85,-23.85,-24.41,0,*52
1486447394.98,45989,10.13,72732.3,-8.85,-23.85,-24.57,0,*54
1486447396.19,45990,10.13,72734.0,-8.85,-23.89,-24.51,0,*56
1486447397.44,45991,10.13,72732.8,-8.85,-23.95,-24.67,0,*5F
1486447398.69,45992,10.13,72734.0,-8.85,-24.05,-24.71,0,*55
1486447399.95,45993,10.13,72736.5,-8.85,-23.95,-24.71,0,*5A
1486447401.19,45994,10.13,72734.8,-8.85,-24.05,-24.67,0,*54
1486447402.45,45995,10.13,72730.8,-8.85,-23.95,-24.67,0,*5B
1486447403.68,45996,10.13,72734.0,-8.85,-23.89,-24.67,0,*55
1486447404.89,45997,10.13,72738.5,-8.85,-23.89,-24.51,0,*51
1486447406.12,45998,10.13,72736.5,-8.85,-23.95,-24.57,0,*55
1486447407.39,45999,10.13,72734.0,-8.85,-23.95,-24.71,0,*50
1486447408.65,46000,10.13,72734.0,-8.85,-23.95,-24.71,0,*5A
1486447409.89,46001,10.13,72736.5,-8.85,-24.05,-24.67,0,*52
1486447411.12,46002,10.13,72734.3,-8.85,-23.95,-24.51,0,*5A
1486447412.38,46003,10.13,72734.5,-8.85,-23.95,-24.67,0,*5E
1486447413.59,46004,10.13,72732.0,-8.85,-23.89,-24.51,0,*51
1486447414.8,46005,10.13,72736.5,-8.85,-23.89,-24.57,0,*56
1486447416.01,46006,10.13,72732.5,-8.85,-23.89,-24.57,0,*55
1486447417.25,46007,10.13,72732.5,-8.85,-23.89,-24.71,0,*50
1486447418.51,46008,10.13,72734.0,-8.85,-23.95,-24.67,0,*55
1486447419.72,46009,10.13,72732.8,-8.85,-23.89,-24.57,0,*5A
1486447420.92,46010,10.13,72734.0,-8.85,-23.89,-24.51,0,*54
1486447422.16,46011,10.13,72734.3,-8.85,-23.85,-24.57,0,*5F
1486447423.39,46012,10.13,72734.8,-8.85,-23.85,-24.57,0,*5C
1486447424.64,46013,10.13,72732.5,-8.85,-24.05,-24.71,0,*56
1486447425.87,46014,10.13,72734.0,-8.85,-24.05,-24.83,0,*5C
1486447427.12,46015,10.13,72734.0,-8.85,-24.05,-24.71,0,*50
1486447428.37,46016,10.13,72732.8,-8.85,-23.95,-24.67,0,*5A
1486447429.6,46017,10.13,72734.5,-8.85,-23.89,-24.67,0,*56
1486447430.87,46018,10.13,72738.0,-8.87,-24.11,-24.77,0,*5C
1486447432.13,46019,10.13,72738.5,-8.85,-23.95,-24.67,0,*55
1486447433.37,46020,10.13,72732.0,-8.85,-24.05,-24.71,0,*56
1486447434.61,46021,10.13,72734.3,-8.85,-24.05,-24.87,0,*5E
1486447435.87,46022,10.13,72736.0,-8.87,-24.11,-24.93,0,*5F
1486447437.11,46023,10.13,72738.8,-8.85,-24.05,-24.83,0,*58
1486447438.35,46024,10.13,72736.3,-8.85,-24.05,-24.83,0,*5F
1486447439.63,46025,10.13,72734.5,-8.87,-24.15,-24.87,0,*59
1486447440.87,46026,10.13,72736.5,-8.85,-24.05,-24.83,0,*5D
1486447442.14,46027,10.13,72734.8,-8.87,-24.11,-24.77,0,*50
1486447443.37,46028,10.13,72736.8,-8.85,-23.89,-24.67,0,*5A
1486447444.58,46029,10.13,72738.3,-8.85,-23.89,-24.57,0,*58
1486447445.79,46030,10.13,72734.8,-8.85,-23.89,-24.57,0,*50
1486447447.05,46031,10.13,72736.3,-8.87,-23.95,-24.61,0,*5B
1486447448.31,46032,10.13,72734.5,-8.83,-23.95,-24.71,0,*5D
1486447449.58,46033,10.13,72732.8,-8.87,-24.11,-24.77,0,*55
1486447450.82,46034,10.13,72732.3,-8.85,-24.05,-24.71,0,*53
1486447452.09,46035,10.13,72734.0,-8.85,-23.95,-24.71,0,*5C
1486447453.35,46036,10.13,72738.8,-8.85,-23.95,-24.83,0,*52
1486447454.61,46037,10.13,72734.0,-8.85,-23.95,-24.83,0,*53
1486447455.87,46038,10.13,72738.5,-8.87,-24.11,-24.93,0,*54
1486447457.13,46039,10.13,72734.0,-8.85,-23.95,-24.87,0,*59
1486447458.4,46040,10.13,72732.8,-8.87,-24.11,-24.93,0,*5B
1486447459.68,46041,10.13,72736.0,-8.87,-24.15,-24.87,0,*5B
1486447460.94,46042,10.13,72734.3,-8.87,-24.11,-24.93,0,*59
1486447462.18,46043,10.13,72736.5,-8.85,-24.11,-24.93,0,*5A
1486447463.48,46044,10.13,72736.0,-8.87,-24.25,-24.87,0,*5D
1486447464.74,46045,10.13,72734.3,-8.87,-24.11,-24.93,0,*5E
1486447466.0,46046,10.13,72732.8,-8.85,-24.15,-24.83,0,*5A
1486447467.26,46047,10.13,72738.3,-8.87,-24.11,-24.77,0,*56
1486447468.5,46048,10.13,72736.8,-8.85,-24.05,-24.83,0,*55
1486447469.76,46049,10.13,72736.3,-8.87,-24.11,-24.93,0,*52
1486447471.02,46050,10.13,72736.8,-8.85,-24.11,-24.87,0,*5D
1486447472.31,46051,10.13,72736.3,-8.87,-24.15,-25.03,0,*57
1486447473.58,46052,10.13,72734.3,-8.87,-23.95,-24.77,0,*59
1486447474.83,46053,10.13,72732.8,-8.85,-23.95,-24.67,0,*5B
1486447476.12,46054,10.13,72736.3,-8.87,-23.95,-24.71,0,*59
1486447477.39,46055,10.13,72734.5,-8.85,-23.95,-24.71,0,*5A
1486447478.66,46056,10.13,72738.5,-8.87,-23.99,-24.77,0,*51
1486447479.94,46057,10.13,72736.3,-8.87,-24.15,-24.87,0,*5C
1486447481.18,46058,10.13,72736.0,-8.89,-24.11,-24.77,0,*56
1486447482.41,46059,10.13,72734.3,-8.89,-24.11,-24.93,0,*5D
1486447483.66,46060,10.13,72732.8,-8.89,-24.25,-24.93,0,*50
1486447484.92,46061,10.13,72736.5,-8.89,-24.15,-24.87,0,*57
1486447486.15,46062,10.13,72738.0,-8.89,-23.99,-24.77,0,*58
1486447487.41,46063,10.13,72734.0,-8.89,-24.15,-24.87,0,*55
1486447488.71,46064,10.13,72732.3,-8.87,-23.99,-24.87,0,*5F
1486447489.97,46065,10.13,72738.3,-8.87,-24.11,-24.77,0,*56
1486447491.2,46066,10.13,72736.0,-8.89,-24.11,-24.93,0,*51
1486447492.47,46067,10.13,72734.3,-8.87,-23.95,-24.77,0,*5F
1486447493.76,46068,10.13,72738.0,-8.87,-23.99,-24.71,0,*5A
1486447494.99,46069,10.13,72732.8,-8.85,-23.89,-24.67,0,*5F
1486447496.23,46070,10.13,72732.8,-8.89,-23.95,-24.61,0,*50
1486447497.49,46071,10.13,72734.5,-8.89,-23.99,-24.71,0,*5C
1486447498.76,46072,10.13,72736.8,-8.89,-23.95,-24.71,0,*53
1486447500.05,46073,10.13,72736.3,-8.87,-23.95,-24.71,0,*5C
1486447501.31,46074,10.13,72736.8,-8.87,-23.95,-24.61,0,*5A
1486447502.58,46075,10.19,72738.0,-8.87,-24.11,-24.77,0,*57
1486447503.83,46076,10.13,72736.3,-8.85,-23.95,-24.67,0,*5C
1486447505.1,46077,10.13,72734.8,-8.87,-23.99,-24.77,0,*52
1486447506.36,46078,10.13,72736.0,-8.87,-23.99,-24.77,0,*5D
1486447507.6,46079,10.13,72738.3,-8.89,-23.99,-24.77,0,*52
1486447508.89,46080,10.13,72732.0,-8.87,-24.11,-24.71,0,*5B
1486447510.16,46081,10.13,72736.0,-8.87,-24.11,-24.77,0,*5C
1486447511.42,46082,10.13,72736.0,-8.89,-24.11,-24.87,0,*5E
1486447512.69,46083,10.13,72734.5,-8.89,-23.99,-24.71,0,*51
1486447513.98,46084,10.13,72736.3,-8.87,-23.99,-24.71,0,*58
1486447515.24,46085,10.13,72736.5,-8.87,-23.99,-24.61,0,*58
1486447516.5,46086,10.13,72736.8,-8.87,-23.95,-24.61,0,*57
1486447517.77,46087,10.13,72738.5,-8.87,-23.99,-24.61,0,*5A
1486447519.03,46088,10.13,72736.5,-8.87,-24.11,-24.77,0,*55
1486447520.3,46089,10.13,72736.3,-8.87,-24.11,-24.77,0,*54
1486447521.58,46090,10.13,72738.8,-8.87,-24.15,-24.87,0,*57
1486447522.87,46091,10.13,72736.3,-8.87,-24.15,-24.87,0,*56
1486447524.16,46092,10.13,72738.5,-8.87,-24.11,-24.87,0,*51
1486447525.45,46093,10.13,72734.3,-8.87,-24.11,-24.87,0,*50
1486447526.73,46094,10.13,72736.5,-8.87,-24.15,-24.87,0,*53
1486447528.03,46095,10.13,72736.8,-8.87,-24.11,-24.71,0,*5F
1486447529.31,46096,10.13,72732.8,-8.87,-24.11,-24.87,0,*55
1486447530.59,46097,10.13,72732.8,-8.87,-24.25,-24.77,0,*5C
1486447531.88,46098,10.13,72738.5,-8.87,-24.11,-24.71,0,*52
1486447533.17,46099,10.13,72734.0,-8.87,-24.11,-24.71,0,*53
1486447534.43,46100,10.13,72738.3,-8.89,-24.15,-24.71,0,*58
1486447535.7,46101,10.13,72736.0,-8.87,-23.99,-24.61,0,*55
1486447536.96,46102,10.13,72738.8,-8.87,-24.11,-24.77,0,*56
1486447538.23,46103,10.13,72732.8,-8.87,-24.11,-24.61,0,*50
1486447539.49,46104,10.13,72736.8,-8.87,-24.11,-24.57,0,*52
1486447540.78,46105,10.13,72736.3,-8.87,-24.11,-24.71,0,*57
1486447542.04,46106,10.13,72738.0,-8.87,-23.99,-24.61,0,*52
1486447543.3,46107,10.13,72736.5,-8.87,-23.95,-24.57,0,*5A
1486447544.57,46108,10.13,72734.0,-8.87,-23.95,-24.61,0,*50
1486447545.86,46109,10.13,72738.3,-8.87,-23.99,-24.71,0,*5C
1486447547.09,46110,10.13,72738.5,-8.85,-24.05,-24.67,0,*53
1486447548.36,46111,10.13,72734.5,-8.87,-24.15,-24.77,0,*50
1486447549.64,46112,10.13,72732.3,-8.87,-24.11,-24.87,0,*58
1486447550.94,46113,10.13,72736.3,-8.87,-24.25,-24.87,0,*5E
1486447552.18,46114,10.13,72738.0,-8.89,-24.15,-24.77,0,*5B
1486447553.44,46115,10.13,72738.0,-8.87,-24.15,-24.77,0,*54
1486447554.7,46116,10.13,72738.0,-8.87,-24.15,-24.93,0,*5D
1486447555.96,46117,10.13,72736.8,-8.87,-24.11,-24.77,0,*52
1486447557.25,46118,10.13,72738.3,-8.87,-24.11,-24.87,0,*52
1486447558.52,46119,10.13,72738.8,-8.87,-24.31,-24.87,0,*51
1486447559.76,46120,10.13,72736.8,-8.89,-24.15,-24.77,0,*5C
1486447561.02,46121,10.13,72738.3,-8.89,-24.25,-24.87,0,*51
1486447562.29,46122,10.13,72738.3,-8.89,-24.25,-24.87,0,*52
1486447563.53,46123,10.13,72736.0,-8.89,-24.15,-24.77,0,*5F
1486447564.77,46124,10.13,72738.3,-8.89,-23.99,-24.61,0,*5C
1486447566.0,46125,10.13,72736.3,-8.89,-24.11,-24.61,0,*5A
1486447567.27,46126,10.13,72732.3,-8.89,-24.11,-24.71,0,*58
1486447568.53,46127,10.13,72734.3,-8.89,-24.15,-24.71,0,*5D
1486447569.79,46128,10.13,72734.0,-8.89,-24.15,-24.71,0,*52
1486447571.03,46129,10.13,72738.0,-8.89,-24.15,-24.77,0,*55
1486447572.29,46130,10.13,72736.3,-8.87,-24.15,-24.77,0,*53
1486447573.58,46131,10.13,72732.8,-8.87,-24.11,-24.71,0,*50
1486447574.85,46132,10.13,72736.0,-8.87,-24.15,-24.77,0,*51
1486447576.08,46133,10.13,72738.0,-8.89,-24.15,-24.77,0,*5E
1486447577.34,46134,10.13,72740.3,-8.89,-24.15,-24.71,0,*5F
1486447578.61,46135,10.13,72736.8,-8.89,-24.25,-24.71,0,*5D
1486447579.88,46136,10.13,72736.5,-8.89,-24.21,-24.67,0,*5D
1486447581.11,46137,10.13,72736.8,-8.89,-24.15,-24.77,0,*5A
1486447582.35,46138,10.13,72734.0,-8.89,-24.11,-24.57,0,*53
1486447583.59,46139,10.13,72738.8,-8.89,-24.11,-24.61,0,*57
1486447584.82,46140,10.13,72738.3,-8.89,-24.11,-24.61,0,*59
1486447586.06,46141,10.13,72738.8,-8.89,-24.11,-24.57,0,*5D
1486447587.29,46142,10.13,72738.0,-8.89,-24.15,-24.61,0,*5F
1486447588.55,46143,10.13,72732.8,-8.89,-24.15,-24.71,0,*5F
1486447589.82,46144,10.13,72734.3,-8.87,-24.15,-24.61,0,*57
1486447591.05,46145,10.13,72736.0,-8.89,-24.11,-24.57,0,*59
1486447592.32,46146,10.13,72734.5,-8.89,-24.11,-24.71,0,*5E
1486447593.58,46147,10.13,72736.0,-8.91,-24.21,-24.61,0,*54
1486447594.82,46148,10.13,72732.8,-8.89,-23.99,-24.61,0,*56
1486447596.05,46149,10.13,72734.8,-8.89,-23.99,-24.57,0,*52
1486447597.29,46150,10.13,72738.0,-8.89,-24.11,-24.57,0,*5D
1486447598.52,46151,10.13,72738.0,-8.89,-23.99,-24.57,0,*5B
1486447599.76,46152,10.13,72736.3,-8.89,-24.15,-24.61,0,*5E
1486447600.99,46153,10.13,72736.5,-8.89,-24.11,-24.61,0,*5B
1486447602.26,46154,10.13,72736.0,-8.87,-24.11,-24.57,0,*57
1486447603.49,46155,10.13,72736.5,-8.89,-24.15,-24.61,0,*59
1486447604.73,46156,10.13,72738.0,-8.89,-24.25,-24.77,0,*5E
1486447605.98,46157,10.13,72736.0,-8.85,-24.21,-24.57,0,*55
1486447607.23,46158,10.13,72738.8,-8.87,-24.15,-24.57,0,*5F
1486447608.49,46159,10.13,72736.3,-8.87,-24.15,-24.61,0,*5B
1486447609.76,46160,10.13,72736.3,-8.87,-24.15,-24.61,0,*51
1486447611.03,46161,10.13,72736.8,-8.89,-24.25,-24.71,0,*5C
1486447612.26,46162,10.13,72734.5,-8.89,-24.11,-24.57,0,*5C
1486447613.52,46163,10.13,72736.5,-8.87,-24.15,-24.57,0,*57
1486447614.79,46164,10.13,72736.8,-8.85,-24.25,-24.67,0,*52
1486447616.05,46165,10.13,72736.3,-8.87,-24.15,-24.61,0,*54
1486447617.31,46166,10.13,72736.3,-8.87,-23.99,-24.47,0,*50
1486447618.55,46167,10.13,72734.0,-8.89,-24.11,-24.47,0,*58
1486447619.79,46168,10.13,72736.5,-8.89,-23.99,-24.47,0,*50
1486447621.05,46169,10.13,72738.3,-8.87,-24.11,-24.47,0,*58
1486447622.31,46170,10.13,72738.0,-8.87,-24.11,-24.47,0,*50
1486447623.6,46171,10.13,72734.8,-8.87,-24.11,-24.41,0,*57
1486447624.86,46172,10.13,72738.8,-8.87,-24.15,-24.61,0,*52
1486447626.11,46173,10.13,72738.0,-8.87,-24.31,-24.61,0,*55
1486447627.38,46174,10.13,72738.5,-8.87,-24.25,-24.61,0,*57
1486447628.65,46175,10.13,72736.0,-8.87,-24.31,-24.71,0,*52
1486447629.89,46176,10.13,72738.8,-8.87,-24.31,-24.77,0,*57
1486447631.17,46177,10.13,72736.8,-8.87,-24.31,-24.71,0,*50
1486447632.43,46178,10.13,72738.5,-8.87,-24.15,-24.47,0,*5C
1486447633.69,46179,10.13,72738.8,-8.87,-24.15,-24.47,0,*5D
1486447634.93,46180,10.13,72734.5,-8.89,-24.25,-24.57,0,*57
1486447636.19,46181,10.13,72732.8,-8.87,-24.11,-24.47,0,*5E
1486447637.45,46182,10.13,72736.5,-8.87,-24.15,-24.57,0,*58
1486447638.7,46183,10.13,72738.5,-8.87,-24.31,-24.61,0,*5A
1486447639.95,46184,10.13,72738.0,-8.87,-24.15,-24.57,0,*5E
1486447641.2,46185,10.13,72734.3,-8.89,-24.25,-24.47,0,*53
1486447642.45,46186,10.13,72736.5,-8.91,-24.15,-24.51,0,*5D
1486447643.69,46187,10.13,72738.3,-8.89,-24.25,-24.57,0,*50
1486447644.94,46188,10.13,72736.3,-8.89,-24.25,-24.47,0,*5E
1486447646.18,46189,10.13,72736.3,-8.89,-24.25,-24.47,0,*5F
1486447647.42,46190,10.13,72736.0,-8.89,-24.25,-24.57,0,*56
1486447648.69,46191,10.13,72738.8,-8.87,-24.25,-24.61,0,*5C
1486447649.93,46192,10.13,72738.5,-8.89,-24.25,-24.57,0,*54
1486447651.17,46193,10.13,72736.8,-8.89,-24.11,-24.47,0,*53
1486447652.42,46194,10.13,72740.0,-8.91,-24.15,-24.35,0,*5C
1486447653.71,46195,10.13,72736.0,-8.87,-24.11,-24.41,0,*5D
1486447655.0,46196,10.13,72738.8,-8.87,-24.11,-24.41,0,*5E
1486447656.28,46197,10.13,72738.0,-8.87,-24.15,-24.41,0,*5B
1486447657.57,46198,10.13,72738.5,-8.87,-24.15,-24.41,0,*54
1486447658.83,46199,10.13,72738.3,-8.87,-24.11,-24.31,0,*56
1486447660.12,46200,10.13,72738.8,-8.87,-24.15,-24.41,0,*56
1486447661.4,46201,10.13,72736.5,-8.87,-24.11,-24.41,0,*53
1486447662.65,46202,10.13,72738.3,-8.87,-24.31,-24.47,0,*54
1486447663.92,46203,10.13,72736.8,-8.87,-24.25,-24.47,0,*50
1486447665.19,46204,10.13,72736.0,-8.87,-24.25,-24.47,0,*57
1486447666.42,46205,10.13,72738.5,-8.89,-24.15,-24.31,0,*5A
1486447667.68,46206,10.13,72738.0,-8.87,-24.15,-24.47,0,*56
1486447668.95,46207,10.13,72738.3,-8.87,-24.25,-24.57,0,*55
1486447670.19,46208,10.13,72738.0,-8.87,-24.31,-24.47,0,*5E
1486447671.46,46209,10.13,72738.5,-8.87,-24.25,-24.47,0,*5A
1486447672.71,46210,10.13,72738.8,-8.89,-24.25,-24.47,0,*5C
1486447673.93,46211,10.13,72738.3,-8.89,-24.31,-24.47,0,*58
1486447675.19,46212,10.13,72736.0,-8.89,-24.11,-24.41,0,*5F
1486447676.4,46213,10.13,72738.5,-8.89,-24.31,-24.57,0,*5B
1486447677.62,46214,10.13,72736.0,-8.89,-24.31,-24.57,0,*5C
1486447678.83,46215,10.13,72738.3,-8.89,-24.31,-24.57,0,*5D
1486447680.1,46216,10.13,72732.0,-8.89,-24.25,-24.41,0,*5C
1486447681.33,46217,10.13,72736.3,-8.89,-24.15,-24.31,0,*59
1486447682.57,46218,10.13,72738.5,-8.89,-24.11,-24.31,0,*52
1486447683.83,46219,10.13,72736.8,-8.89,-24.11,-24.25,0,*56
1486447685.1,46220,10.13,72738.3,-8.89,-24.11,-24.25,0,*5C
1486447686.35,46221,10.13,72736.0,-8.91,-24.15,-24.31,0,*55
1486447687.61,46222,10.13,72736.3,-8.89,-23.99,-24.25,0,*59
1486447688.85,46223,10.13,72738.3,-8.89,-24.15,-24.31,0,*5E
1486447690.11,46224,10.13,72736.0,-8.91,-24.21,-24.35,0,*53
1486447691.37,46225,10.13,72736.0,-8.89,-24.11,-24.25,0,*59
1486447692.61,46226,10.13,72736.3,-8.89,-24.11,-24.31,0,*5F
1486447693.87,46227,10.13,72738.8,-8.89,-23.99,-24.25,0,*5C
1486447695.1,46228,10.13,72736.0,-8.89,-24.15,-24.31,0,*55
1486447696.39,46229,10.13,72738.5,-8.87,-24.11,-24.25,0,*5B
1486447697.68,46230,10.13,72736.3,-8.87,-23.99,-24.25,0,*54
1486447698.92,46231,10.13,72738.3,-8.89,-24.15,-24.47,0,*5C
1486447700.18,46232,10.13,72738.8,-8.89,-24.15,-24.25,0,*5B